Year,Month,Day,Hour,Minute,Value (Times are PST for temperature in C)
2011,07,21,00,02,16.10
2011,07,21,00,05,16.10
2011,07,21,00,06,16.10
2011,07,21,00,07,16.10
2011,07,21,00,10,16.10
2011,07,21,00,11,16.10
2011,07,21,00,12,16.10
2011,07,21,00,14,16.10
2011,07,21,00,15,16.10
2011,07,21,00,17,16.10
2011,07,21,00,19,16.10
2011,07,21,00,20,16.10
2011,07,21,00,21,16.20
2011,07,21,00,22,16.10
2011,07,21,00,24,16.20
2011,07,21,00,25,16.20
2011,07,21,00,27,16.20
2011,07,21,00,30,16.20
2011,07,21,00,32,16.10
2011,07,21,00,34,16.20
2011,07,21,00,35,16.20
2011,07,21,00,37,16.20
2011,07,21,00,39,16.20
2011,07,21,00,40,16.20
2011,07,21,00,44,16.20
2011,07,21,00,45,16.20
2011,07,21,00,46,16.20
2011,07,21,00,48,16.20
2011,07,21,00,50,16.20
2011,07,21,00,51,16.20
2011,07,21,00,53,16.20
2011,07,21,00,54,16.20
2011,07,21,00,56,16.20
2011,07,21,00,57,16.20
2011,07,21,01,00,16.20
2011,07,21,01,01,16.20
2011,07,21,01,02,16.20
2011,07,21,01,03,16.20
2011,07,21,01,04,16.30
2011,07,21,01,06,16.30
2011,07,21,01,07,16.30
2011,07,21,01,08,16.30
2011,07,21,01,09,16.20
2011,07,21,01,11,16.20
2011,07,21,01,12,16.20
2011,07,21,01,13,16.20
2011,07,21,01,14,16.20
2011,07,21,01,16,16.20
2011,07,21,01,17,16.20
2011,07,21,01,18,16.10
2011,07,21,01,20,16.10
2011,07,21,01,21,16.10
2011,07,21,01,22,16.10
2011,07,21,01,24,16.10
2011,07,21,01,26,16.10
2011,07,21,01,27,16.10
2011,07,21,01,28,16.10
2011,07,21,01,30,16.10
2011,07,21,01,31,16.10
2011,07,21,01,32,16.10
2011,07,21,01,33,16.10
2011,07,21,01,34,16.10
2011,07,21,01,35,16.10
2011,07,21,01,36,16.00
2011,07,21,01,37,16.00
2011,07,21,01,38,16.00
2011,07,21,01,39,16.00
2011,07,21,01,41,16.00
2011,07,21,01,42,16.00
2011,07,21,01,43,16.00
2011,07,21,01,44,16.00
2011,07,21,01,45,16.00
2011,07,21,01,46,15.90
2011,07,21,01,47,16.00
2011,07,21,01,48,16.00
2011,07,21,01,49,16.00
2011,07,21,01,50,16.00
2011,07,21,01,51,16.00
2011,07,21,01,52,16.00
2011,07,21,01,53,16.00
2011,07,21,01,54,16.00
2011,07,21,01,56,16.00
2011,07,21,01,57,16.00
2011,07,21,01,58,16.00
2011,07,21,01,59,16.00
2011,07,21,02,01,16.00
2011,07,21,02,02,16.00
2011,07,21,02,03,16.00
2011,07,21,02,04,16.00
2011,07,21,02,06,15.90
2011,07,21,02,07,15.90
2011,07,21,02,08,15.90
2011,07,21,02,09,15.90
2011,07,21,02,10,15.80
2011,07,21,02,12,15.80
2011,07,21,02,13,15.80
2011,07,21,02,14,15.80
2011,07,21,02,15,15.80
2011,07,21,02,17,15.70
2011,07,21,02,18,15.70
2011,07,21,02,19,15.60
2011,07,21,02,20,15.60
2011,07,21,02,21,15.60
2011,07,21,02,22,15.60
2011,07,21,02,23,15.50
2011,07,21,02,24,15.40
2011,07,21,02,25,15.40
2011,07,21,02,27,15.40
2011,07,21,02,28,15.30
2011,07,21,02,29,15.30
2011,07,21,02,30,15.30
2011,07,21,02,31,15.30
2011,07,21,02,32,15.30
2011,07,21,02,33,15.30
2011,07,21,02,35,15.30
2011,07,21,02,36,15.20
2011,07,21,02,37,15.20
2011,07,21,02,39,15.20
2011,07,21,02,40,15.20
2011,07,21,02,41,15.20
2011,07,21,02,43,15.20
2011,07,21,02,44,15.20
2011,07,21,02,45,15.20
2011,07,21,02,46,15.20
2011,07,21,02,48,15.10
2011,07,21,02,49,15.10
2011,07,21,02,50,15.10
2011,07,21,02,51,15.10
2011,07,21,02,52,15.10
2011,07,21,02,53,15.10
2011,07,21,02,54,15.10
2011,07,21,02,55,15.10
2011,07,21,02,56,15.00
2011,07,21,02,58,14.90
2011,07,21,02,59,14.90
2011,07,21,03,00,14.80
2011,07,21,03,01,14.70
2011,07,21,03,02,14.70
2011,07,21,03,04,14.60
2011,07,21,03,05,14.50
2011,07,21,03,06,14.40
2011,07,21,03,07,14.30
2011,07,21,03,09,14.20
2011,07,21,03,10,14.10
2011,07,21,03,11,14.00
2011,07,21,03,12,13.90
2011,07,21,03,13,13.90
2011,07,21,03,14,13.80
2011,07,21,03,15,13.80
2011,07,21,03,16,13.70
2011,07,21,03,17,13.70
2011,07,21,03,19,13.60
2011,07,21,03,20,13.50
2011,07,21,03,21,13.40
2011,07,21,03,22,13.40
2011,07,21,03,24,13.30
2011,07,21,03,25,13.30
2011,07,21,03,26,13.30
2011,07,21,03,27,13.20
2011,07,21,03,28,13.20
2011,07,21,03,29,13.20
2011,07,21,03,30,13.20
2011,07,21,03,31,13.10
2011,07,21,03,32,13.10
2011,07,21,03,33,13.10
2011,07,21,03,34,13.10
2011,07,21,03,35,13.10
2011,07,21,03,36,13.10
2011,07,21,03,37,13.10
2011,07,21,03,39,13.10
2011,07,21,03,40,13.10
2011,07,21,03,41,13.10
2011,07,21,03,42,13.00
2011,07,21,03,43,13.00
2011,07,21,03,44,13.00
2011,07,21,03,45,13.10
2011,07,21,03,46,13.00
2011,07,21,03,48,13.00
2011,07,21,03,49,12.90
2011,07,21,03,50,12.90
2011,07,21,03,51,12.90
2011,07,21,03,52,12.90
2011,07,21,03,53,12.90
2011,07,21,03,54,12.90
2011,07,21,03,55,12.90
2011,07,21,03,57,12.80
2011,07,21,03,58,12.80
2011,07,21,03,59,12.80
2011,07,21,04,00,12.80
2011,07,21,04,01,12.80
2011,07,21,04,02,12.80
2011,07,21,04,03,12.80
2011,07,21,04,04,12.80
2011,07,21,04,05,12.80
2011,07,21,04,06,12.80
2011,07,21,04,07,12.80
2011,07,21,04,08,12.80
2011,07,21,04,09,12.80
2011,07,21,04,11,12.80
2011,07,21,04,12,12.80
2011,07,21,04,13,12.80
2011,07,21,04,14,12.80
2011,07,21,04,16,12.80
2011,07,21,04,17,12.70
2011,07,21,04,18,12.70
2011,07,21,04,19,12.70
2011,07,21,04,20,12.70
2011,07,21,04,21,12.70
2011,07,21,04,22,12.70
2011,07,21,04,23,12.70
2011,07,21,04,24,12.70
2011,07,21,04,25,12.70
2011,07,21,04,27,12.70
2011,07,21,04,28,12.70
2011,07,21,04,29,12.70
2011,07,21,04,30,12.60
2011,07,21,04,31,12.60
2011,07,21,04,32,12.60
2011,07,21,04,33,12.60
2011,07,21,04,34,12.60
2011,07,21,04,35,12.60
2011,07,21,04,36,12.60
2011,07,21,04,37,12.60
2011,07,21,04,38,12.60
2011,07,21,04,39,12.60
2011,07,21,04,40,12.60
2011,07,21,04,41,12.60
2011,07,21,04,42,12.60
2011,07,21,04,43,12.60
2011,07,21,04,45,12.60
2011,07,21,04,46,12.60
2011,07,21,04,47,12.60
2011,07,21,04,49,12.60
2011,07,21,04,50,12.60
2011,07,21,04,51,12.60
2011,07,21,04,52,12.60
2011,07,21,04,54,12.60
2011,07,21,04,55,12.60
2011,07,21,04,56,12.60
2011,07,21,04,57,12.60
2011,07,21,04,59,12.60
2011,07,21,05,00,12.60
2011,07,21,05,01,12.60
2011,07,21,05,02,12.60
2011,07,21,05,03,12.60
2011,07,21,05,04,12.50
2011,07,21,05,05,12.50
2011,07,21,05,06,12.50
2011,07,21,05,07,12.50
2011,07,21,05,08,12.50
2011,07,21,05,09,12.50
2011,07,21,05,10,12.50
2011,07,21,05,11,12.40
2011,07,21,05,12,12.50
2011,07,21,05,14,12.50
2011,07,21,05,15,12.50
2011,07,21,05,16,12.50
2011,07,21,05,17,12.50
2011,07,21,05,18,12.50
2011,07,21,05,19,12.60
2011,07,21,05,20,12.60
2011,07,21,05,21,12.60
2011,07,21,05,22,12.60
2011,07,21,05,23,12.60
2011,07,21,05,25,12.60
2011,07,21,05,26,12.60
2011,07,21,05,27,12.60
2011,07,21,05,28,12.70
2011,07,21,05,29,12.70
2011,07,21,05,30,12.70
2011,07,21,05,31,12.70
2011,07,21,05,32,12.80
2011,07,21,05,34,12.80
2011,07,21,05,35,12.80
2011,07,21,05,36,12.80
2011,07,21,05,37,12.80
2011,07,21,05,39,12.80
2011,07,21,05,40,12.90
2011,07,21,05,41,12.90
2011,07,21,05,42,12.90
2011,07,21,05,44,12.90
2011,07,21,05,45,13.00
2011,07,21,05,46,13.00
2011,07,21,05,47,13.00
2011,07,21,05,48,13.10
2011,07,21,05,50,13.10
2011,07,21,05,51,13.10
2011,07,21,05,52,13.10
2011,07,21,05,53,13.10
2011,07,21,05,54,13.10
2011,07,21,05,55,13.10
2011,07,21,05,56,13.10
2011,07,21,05,57,13.10
2011,07,21,05,58,13.10
2011,07,21,05,59,13.20
2011,07,21,06,01,13.20
2011,07,21,06,02,13.20
2011,07,21,06,03,13.30
2011,07,21,06,04,13.30
2011,07,21,06,06,13.30
2011,07,21,06,07,13.30
2011,07,21,06,08,13.30
2011,07,21,06,09,13.40
2011,07,21,06,11,13.40
2011,07,21,06,12,13.40
2011,07,21,06,13,13.40
2011,07,21,06,14,13.50
2011,07,21,06,16,13.50
2011,07,21,06,17,13.60
2011,07,21,06,18,13.60
2011,07,21,06,19,13.60
2011,07,21,06,20,13.60
2011,07,21,06,21,13.70
2011,07,21,06,22,13.70
2011,07,21,06,23,13.70
2011,07,21,06,24,13.70
2011,07,21,06,25,13.80
2011,07,21,06,26,13.80
2011,07,21,06,27,13.80
2011,07,21,06,29,13.80
2011,07,21,06,30,13.80
2011,07,21,06,31,13.80
2011,07,21,06,32,13.80
2011,07,21,06,33,13.80
2011,07,21,06,35,13.80
2011,07,21,06,36,13.80
2011,07,21,06,37,13.80
2011,07,21,06,38,13.80
2011,07,21,06,39,13.80
2011,07,21,06,40,13.80
2011,07,21,06,41,13.80
2011,07,21,06,42,13.70
2011,07,21,06,44,13.70
2011,07,21,06,45,13.70
2011,07,21,06,46,13.70
2011,07,21,06,47,13.70
2011,07,21,06,48,13.70
2011,07,21,06,49,13.70
2011,07,21,06,50,13.70
2011,07,21,06,51,13.70
2011,07,21,06,52,13.70
2011,07,21,06,53,13.70
2011,07,21,06,54,13.80
2011,07,21,06,55,13.80
2011,07,21,06,56,13.80
2011,07,21,06,58,13.80
2011,07,21,06,59,13.80
2011,07,21,07,00,13.80
2011,07,21,07,01,13.80
2011,07,21,07,03,13.80
2011,07,21,07,04,13.90
2011,07,21,07,05,13.90
2011,07,21,07,06,13.90
2011,07,21,07,08,13.90
2011,07,21,07,09,13.90
2011,07,21,07,10,13.90
2011,07,21,07,11,13.90
2011,07,21,07,12,13.90
2011,07,21,07,13,13.90
2011,07,21,07,14,13.90
2011,07,21,07,15,13.90
2011,07,21,07,16,13.90
2011,07,21,07,17,13.90
2011,07,21,07,18,14.00
2011,07,21,07,19,14.00
2011,07,21,07,20,14.00
2011,07,21,07,22,14.00
2011,07,21,07,23,14.00
2011,07,21,07,24,14.00
2011,07,21,07,25,14.00
2011,07,21,07,27,14.00
2011,07,21,07,28,14.00
2011,07,21,07,29,14.00
2011,07,21,07,30,14.00
2011,07,21,07,31,14.00
2011,07,21,07,32,14.10
2011,07,21,07,33,14.10
2011,07,21,07,34,14.10
2011,07,21,07,35,14.10
2011,07,21,07,36,14.00
2011,07,21,07,37,14.10
2011,07,21,07,38,14.10
2011,07,21,07,39,14.10
2011,07,21,07,40,14.10
2011,07,21,07,41,14.10
2011,07,21,07,42,14.10
2011,07,21,07,43,14.10
2011,07,21,07,44,14.10
2011,07,21,07,45,14.20
2011,07,21,07,46,14.20
2011,07,21,07,47,14.20
2011,07,21,07,48,14.20
2011,07,21,07,49,14.20
2011,07,21,07,50,14.20
2011,07,21,07,51,14.20
2011,07,21,07,52,14.30
2011,07,21,07,53,14.30
2011,07,21,07,54,14.30
2011,07,21,07,56,14.40
2011,07,21,07,57,14.40
2011,07,21,07,58,14.40
2011,07,21,07,59,14.40
2011,07,21,08,00,14.40
2011,07,21,08,02,14.40
2011,07,21,08,03,14.40
2011,07,21,08,04,14.40
2011,07,21,08,05,14.40
2011,07,21,08,06,14.50
2011,07,21,08,07,14.60
2011,07,21,08,08,14.60
2011,07,21,08,09,14.70
2011,07,21,08,10,14.70
2011,07,21,08,12,14.70
2011,07,21,08,13,14.70
2011,07,21,08,14,14.70
2011,07,21,08,15,14.80
2011,07,21,08,16,14.80
2011,07,21,08,17,14.80
2011,07,21,08,18,14.80
2011,07,21,08,19,14.90
2011,07,21,08,20,14.90
2011,07,21,08,21,15.00
2011,07,21,08,23,15.10
2011,07,21,08,24,15.10
2011,07,21,08,25,15.10
2011,07,21,08,26,15.10
2011,07,21,08,27,15.10
2011,07,21,08,28,15.10
2011,07,21,08,29,15.10
2011,07,21,08,30,15.10
2011,07,21,08,31,15.10
2011,07,21,08,32,15.10
2011,07,21,08,34,15.10
2011,07,21,08,35,15.10
2011,07,21,08,36,15.10
2011,07,21,08,38,15.10
2011,07,21,08,39,15.10
2011,07,21,08,40,15.20
2011,07,21,08,41,15.20
2011,07,21,08,42,15.20
2011,07,21,08,44,15.20
2011,07,21,08,45,15.20
2011,07,21,08,46,15.20
2011,07,21,08,47,15.20
2011,07,21,08,48,15.20
2011,07,21,08,50,15.10
2011,07,21,08,51,15.10
2011,07,21,08,52,15.10
2011,07,21,08,53,15.10
2011,07,21,08,55,15.10
2011,07,21,08,56,15.10
2011,07,21,08,57,15.20
2011,07,21,08,59,15.20
2011,07,21,09,00,15.20
2011,07,21,09,01,15.30
2011,07,21,09,02,15.30
2011,07,21,09,04,15.30
2011,07,21,09,05,15.20
2011,07,21,09,06,15.20
2011,07,21,09,07,15.30
2011,07,21,09,08,15.30
2011,07,21,09,10,15.40
2011,07,21,09,11,15.50
2011,07,21,09,12,15.50
2011,07,21,09,13,15.60
2011,07,21,09,15,15.70
2011,07,21,09,16,15.70
2011,07,21,09,17,15.70
2011,07,21,09,18,15.70
2011,07,21,09,19,15.70
2011,07,21,09,21,15.70
2011,07,21,09,22,15.70
2011,07,21,09,23,15.70
2011,07,21,09,25,15.70
2011,07,21,09,26,15.70
2011,07,21,09,27,15.70
2011,07,21,09,28,15.70
2011,07,21,09,30,15.70
2011,07,21,09,31,15.70
2011,07,21,09,32,15.80
2011,07,21,09,33,15.80
2011,07,21,09,35,15.90
2011,07,21,09,36,16.00
2011,07,21,09,37,16.10
2011,07,21,09,38,16.10
2011,07,21,09,40,16.10
2011,07,21,09,41,16.20
2011,07,21,09,42,16.20
2011,07,21,09,43,16.20
2011,07,21,09,44,16.20
2011,07,21,09,46,16.30
2011,07,21,09,47,16.30
2011,07,21,09,48,16.40
2011,07,21,09,49,16.40
2011,07,21,09,50,16.50
2011,07,21,09,51,16.60
2011,07,21,09,52,16.60
2011,07,21,09,53,16.70
2011,07,21,09,54,16.80
2011,07,21,09,55,16.80
2011,07,21,09,56,16.90
2011,07,21,09,57,16.90
2011,07,21,09,58,17.00
2011,07,21,09,59,17.10
2011,07,21,10,01,17.20
2011,07,21,10,02,17.30
2011,07,21,10,03,17.40
2011,07,21,10,04,17.50
2011,07,21,10,05,17.60
2011,07,21,10,06,17.60
2011,07,21,10,07,17.70
2011,07,21,10,08,17.80
2011,07,21,10,09,17.90
2011,07,21,10,10,17.90
2011,07,21,10,11,17.90
2011,07,21,10,13,17.90
2011,07,21,10,14,17.90
2011,07,21,10,15,17.90
2011,07,21,10,16,17.90
2011,07,21,10,18,17.90
2011,07,21,10,19,17.90
2011,07,21,10,20,18.00
2011,07,21,10,21,18.10
2011,07,21,10,23,18.10
2011,07,21,10,24,18.20
2011,07,21,10,25,18.20
2011,07,21,10,26,18.20
2011,07,21,10,27,18.20
2011,07,21,10,28,18.20
2011,07,21,10,29,18.20
2011,07,21,10,30,18.20
2011,07,21,10,31,18.20
2011,07,21,10,33,18.20
2011,07,21,10,34,18.20
2011,07,21,10,35,18.30
2011,07,21,10,36,18.30
2011,07,21,10,38,18.40
2011,07,21,10,39,18.50
2011,07,21,10,40,18.60
2011,07,21,10,41,18.60
2011,07,21,10,42,18.70
2011,07,21,10,43,18.70
2011,07,21,10,44,18.70
2011,07,21,10,45,18.80
2011,07,21,10,46,18.80
2011,07,21,10,47,18.80
2011,07,21,10,49,18.80
2011,07,21,10,50,18.80
2011,07,21,10,51,18.80
2011,07,21,10,52,18.80
2011,07,21,10,53,18.80
2011,07,21,10,55,18.80
2011,07,21,10,56,18.90
2011,07,21,10,57,19.10
2011,07,21,10,58,19.20
2011,07,21,11,00,19.20
2011,07,21,11,01,19.20
2011,07,21,11,02,19.10
2011,07,21,11,03,19.00
2011,07,21,11,05,18.90
2011,07,21,11,06,19.00
2011,07,21,11,07,19.00
2011,07,21,11,08,19.10
2011,07,21,11,09,19.10
2011,07,21,11,11,19.10
2011,07,21,11,12,19.10
2011,07,21,11,13,19.00
2011,07,21,11,14,18.90
2011,07,21,11,16,18.80
2011,07,21,11,17,18.80
2011,07,21,11,18,18.70
2011,07,21,11,20,18.70
2011,07,21,11,21,18.60
2011,07,21,11,22,18.60
2011,07,21,11,23,18.60
2011,07,21,11,24,18.50
2011,07,21,11,25,18.50
2011,07,21,11,26,18.40
2011,07,21,11,27,18.40
2011,07,21,11,28,18.30
2011,07,21,11,29,18.30
2011,07,21,11,30,18.30
2011,07,21,11,31,18.30
2011,07,21,11,32,18.30
2011,07,21,11,33,18.30
2011,07,21,11,34,18.30
2011,07,21,11,35,18.20
2011,07,21,11,36,18.20
2011,07,21,11,37,18.20
2011,07,21,11,38,18.30
2011,07,21,11,40,18.30
2011,07,21,11,41,18.30
2011,07,21,11,42,18.40
2011,07,21,11,43,18.40
2011,07,21,11,45,18.40
2011,07,21,11,46,18.50
2011,07,21,11,47,18.50
2011,07,21,11,48,18.40
2011,07,21,11,50,18.40
2011,07,21,11,51,18.40
2011,07,21,11,52,18.40
2011,07,21,11,53,18.30
2011,07,21,11,55,18.40
2011,07,21,11,56,18.40
2011,07,21,11,57,18.40
2011,07,21,11,58,18.40
2011,07,21,11,59,18.40
2011,07,21,12,00,18.30
2011,07,21,12,01,18.30
2011,07,21,12,02,18.30
2011,07,21,12,03,18.30
2011,07,21,12,04,18.30
2011,07,21,12,05,18.30
2011,07,21,12,06,18.40
2011,07,21,12,07,18.40
2011,07,21,12,08,18.40
2011,07,21,12,09,18.40
2011,07,21,12,10,18.40
2011,07,21,12,11,18.40
2011,07,21,12,12,18.50
2011,07,21,12,14,18.60
2011,07,21,12,15,18.70
2011,07,21,12,16,18.60
2011,07,21,12,17,18.60
2011,07,21,12,19,18.60
2011,07,21,12,20,18.50
2011,07,21,12,21,18.40
2011,07,21,12,22,18.40
2011,07,21,12,24,18.40
2011,07,21,12,25,18.40
2011,07,21,12,26,18.40
2011,07,21,12,27,18.30
2011,07,21,12,28,18.30
2011,07,21,12,30,18.30
2011,07,21,12,31,18.30
2011,07,21,12,32,18.30
2011,07,21,12,33,18.20
2011,07,21,12,35,18.20
2011,07,21,12,36,18.10
2011,07,21,12,37,18.10
2011,07,21,12,38,18.10
2011,07,21,12,39,18.10
2011,07,21,12,40,18.10
2011,07,21,12,41,18.10
2011,07,21,12,42,18.10
2011,07,21,12,43,18.10
2011,07,21,12,45,18.20
2011,07,21,12,46,18.20
2011,07,21,12,47,18.20
2011,07,21,12,48,18.20
2011,07,21,12,50,18.10
2011,07,21,12,51,18.10
2011,07,21,12,52,18.00
2011,07,21,12,53,18.00
2011,07,21,12,54,18.00
2011,07,21,12,55,18.10
2011,07,21,12,56,18.00
2011,07,21,12,57,18.00
2011,07,21,12,58,17.90
2011,07,21,12,59,17.90
2011,07,21,13,00,17.90
2011,07,21,13,01,18.00
2011,07,21,13,02,18.10
2011,07,21,13,03,18.10
2011,07,21,13,05,18.00
2011,07,21,13,06,17.90
2011,07,21,13,07,17.90
2011,07,21,13,08,17.80
2011,07,21,13,10,17.80
2011,07,21,13,11,17.80
2011,07,21,13,12,17.90
2011,07,21,13,13,17.90
2011,07,21,13,15,17.90
2011,07,21,13,16,18.00
2011,07,21,13,17,18.10
2011,07,21,13,18,18.10
2011,07,21,13,20,18.20
2011,07,21,13,21,18.30
2011,07,21,13,22,18.40
2011,07,21,13,23,18.40
2011,07,21,13,25,18.60
2011,07,21,13,26,18.70
2011,07,21,13,27,18.80
2011,07,21,13,28,18.80
2011,07,21,13,30,18.80
2011,07,21,13,31,18.80
2011,07,21,13,32,18.80
2011,07,21,13,33,18.90
2011,07,21,13,35,18.90
2011,07,21,13,36,19.10
2011,07,21,13,37,19.20
2011,07,21,13,38,19.20
2011,07,21,13,40,19.10
2011,07,21,13,41,18.80
2011,07,21,13,42,18.70
2011,07,21,13,43,18.70
2011,07,21,13,45,18.70
2011,07,21,13,46,18.60
2011,07,21,13,47,18.60
2011,07,21,13,48,18.60
2011,07,21,13,50,18.60
2011,07,21,13,51,18.70
2011,07,21,13,52,18.70
2011,07,21,13,53,18.80
2011,07,21,13,54,18.80
2011,07,21,13,55,18.80
2011,07,21,13,56,18.80
2011,07,21,13,57,18.90
2011,07,21,13,58,19.10
2011,07,21,13,59,19.10
2011,07,21,14,00,19.10
2011,07,21,14,01,19.10
2011,07,21,14,02,19.10
2011,07,21,14,03,19.10
2011,07,21,14,05,19.20
2011,07,21,14,06,19.30
2011,07,21,14,07,19.30
2011,07,21,14,08,19.20
2011,07,21,14,10,19.20
2011,07,21,14,11,19.10
2011,07,21,14,12,19.10
2011,07,21,14,13,19.00
2011,07,21,14,14,19.00
2011,07,21,14,16,18.90
2011,07,21,14,17,19.00
2011,07,21,14,18,18.90
2011,07,21,14,19,18.90
2011,07,21,14,21,18.90
2011,07,21,14,22,18.90
2011,07,21,14,23,18.80
2011,07,21,14,24,18.80
2011,07,21,14,26,18.80
2011,07,21,14,27,18.80
2011,07,21,14,28,18.80
2011,07,21,14,29,18.80
2011,07,21,14,30,18.80
2011,07,21,14,31,18.70
2011,07,21,14,32,18.70
2011,07,21,14,33,18.70
2011,07,21,14,34,18.80
2011,07,21,14,36,18.80
2011,07,21,14,37,18.80
2011,07,21,14,38,18.80
2011,07,21,14,39,18.70
2011,07,21,14,40,18.60
2011,07,21,14,41,18.60
2011,07,21,14,42,18.60
2011,07,21,14,43,18.60
2011,07,21,14,44,18.50
2011,07,21,14,45,18.40
2011,07,21,14,46,18.40
2011,07,21,14,47,18.40
2011,07,21,14,48,18.60
2011,07,21,14,49,18.60
2011,07,21,14,50,18.50
2011,07,21,14,52,18.50
2011,07,21,14,53,18.50
2011,07,21,14,54,18.40
2011,07,21,14,55,18.40
2011,07,21,14,57,18.30
2011,07,21,14,58,18.30
2011,07,21,14,59,18.30
2011,07,21,15,00,18.30
2011,07,21,15,01,18.30
2011,07,21,15,02,18.30
2011,07,21,15,03,18.30
2011,07,21,15,04,18.40
2011,07,21,15,05,18.40
2011,07,21,15,06,18.50
2011,07,21,15,07,18.50
2011,07,21,15,08,18.40
2011,07,21,15,09,18.40
2011,07,21,15,11,18.30
2011,07,21,15,12,18.30
2011,07,21,15,13,18.20
2011,07,21,15,14,18.20
2011,07,21,15,15,18.20
2011,07,21,15,17,18.20
2011,07,21,15,18,18.40
2011,07,21,15,19,18.60
2011,07,21,15,20,18.60
2011,07,21,15,22,18.60
2011,07,21,15,23,18.60
2011,07,21,15,24,18.50
2011,07,21,15,26,18.40
2011,07,21,15,27,18.40
2011,07,21,15,28,18.40
2011,07,21,15,29,18.40
2011,07,21,15,31,18.40
2011,07,21,15,32,18.40
2011,07,21,15,33,18.30
2011,07,21,15,34,18.40
2011,07,21,15,36,18.50
2011,07,21,15,37,18.50
2011,07,21,15,38,18.60
2011,07,21,15,39,18.60
2011,07,21,15,40,18.70
2011,07,21,15,42,18.70
2011,07,21,15,43,18.60
2011,07,21,15,44,18.50
2011,07,21,15,45,18.50
2011,07,21,15,47,18.50
2011,07,21,15,48,18.40
2011,07,21,15,49,18.30
2011,07,21,15,50,18.40
2011,07,21,15,51,18.40
2011,07,21,15,52,18.50
2011,07,21,15,53,18.50
2011,07,21,15,54,18.40
2011,07,21,15,55,18.40
2011,07,21,15,57,18.40
2011,07,21,15,58,18.40
2011,07,21,15,59,18.30
2011,07,21,16,00,18.30
2011,07,21,16,01,18.20
2011,07,21,16,03,18.20
2011,07,21,16,04,18.20
2011,07,21,16,05,18.20
2011,07,21,16,06,18.20
2011,07,21,16,07,18.30
2011,07,21,16,09,18.30
2011,07,21,16,10,18.40
2011,07,21,16,11,18.50
2011,07,21,16,12,18.50
2011,07,21,16,14,18.50
2011,07,21,16,15,18.50
2011,07,21,16,16,18.50
2011,07,21,16,17,18.60
2011,07,21,16,18,18.60
2011,07,21,16,20,18.70
2011,07,21,16,21,18.70
2011,07,21,16,22,18.70
2011,07,21,16,23,18.70
2011,07,21,16,24,18.50
2011,07,21,16,25,18.40
2011,07,21,16,26,18.40
2011,07,21,16,28,18.40
2011,07,21,16,29,18.50
2011,07,21,16,30,18.40
2011,07,21,16,31,18.40
2011,07,21,16,32,18.30
2011,07,21,16,33,18.30
2011,07,21,16,34,18.20
2011,07,21,16,35,18.20
2011,07,21,16,36,18.20
2011,07,21,16,37,18.20
2011,07,21,16,38,18.20
2011,07,21,16,39,18.30
2011,07,21,16,40,18.40
2011,07,21,16,41,18.40
2011,07,21,16,42,18.40
2011,07,21,16,43,18.40
2011,07,21,16,44,18.40
2011,07,21,16,45,18.40
2011,07,21,16,46,18.40
2011,07,21,16,48,18.40
2011,07,21,16,49,18.30
2011,07,21,16,50,18.30
2011,07,21,16,51,18.30
2011,07,21,16,52,18.30
2011,07,21,16,54,18.30
2011,07,21,16,55,18.40
2011,07,21,16,56,18.40
2011,07,21,16,58,18.40
2011,07,21,16,59,18.30
2011,07,21,17,00,18.30
2011,07,21,17,01,18.30
2011,07,21,17,02,18.30
2011,07,21,17,03,18.30
2011,07,21,17,04,18.30
2011,07,21,17,05,18.20
2011,07,21,17,07,18.20
2011,07,21,17,08,18.10
2011,07,21,17,09,18.00
2011,07,21,17,10,17.90
2011,07,21,17,12,17.90
2011,07,21,17,13,18.10
2011,07,21,17,14,18.10
2011,07,21,17,15,18.10
2011,07,21,17,16,18.00
2011,07,21,17,17,17.90
2011,07,21,17,18,17.90
2011,07,21,17,19,17.80
2011,07,21,17,20,17.80
2011,07,21,17,22,17.80
2011,07,21,17,23,17.70
2011,07,21,17,24,17.60
2011,07,21,17,25,17.60
2011,07,21,17,27,17.70
2011,07,21,17,28,17.70
2011,07,21,17,29,17.70
2011,07,21,17,30,17.70
2011,07,21,17,31,17.70
2011,07,21,17,33,17.60
2011,07,21,17,34,17.60
2011,07,21,17,35,17.60
2011,07,21,17,36,17.60
2011,07,21,17,38,17.70
2011,07,21,17,39,17.70
2011,07,21,17,40,17.70
2011,07,21,17,41,17.80
2011,07,21,17,43,17.90
2011,07,21,17,44,18.00
2011,07,21,17,45,18.10
2011,07,21,17,46,18.00
2011,07,21,17,48,17.90
2011,07,21,17,49,17.80
2011,07,21,17,50,17.70
2011,07,21,17,51,17.70
2011,07,21,17,53,17.70
2011,07,21,17,54,17.80
2011,07,21,17,55,17.70
2011,07,21,17,56,17.70
2011,07,21,17,58,17.60
2011,07,21,17,59,17.60
2011,07,21,18,00,17.50
2011,07,21,18,01,17.60
2011,07,21,18,02,17.60
2011,07,21,18,03,17.50
2011,07,21,18,04,17.50
2011,07,21,18,05,17.40
2011,07,21,18,06,17.40
2011,07,21,18,07,17.50
2011,07,21,18,09,17.60
2011,07,21,18,10,17.80
2011,07,21,18,11,17.90
2011,07,21,18,12,17.90
2011,07,21,18,13,17.80
2011,07,21,18,15,17.70
2011,07,21,18,16,17.60
2011,07,21,18,17,17.50
2011,07,21,18,18,17.40
2011,07,21,18,19,17.30
2011,07,21,18,20,17.20
2011,07,21,18,21,17.10
2011,07,21,18,22,17.10
2011,07,21,18,24,17.00
2011,07,21,18,25,16.90
2011,07,21,18,26,16.90
2011,07,21,18,27,17.00
2011,07,21,18,28,17.00
2011,07,21,18,29,17.10
2011,07,21,18,30,17.10
2011,07,21,18,31,17.10
2011,07,21,18,32,17.10
2011,07,21,18,33,17.10
2011,07,21,18,35,17.10
2011,07,21,18,36,17.20
2011,07,21,18,37,17.20
2011,07,21,18,38,17.30
2011,07,21,18,40,17.40
2011,07,21,18,41,17.30
2011,07,21,18,42,17.30
2011,07,21,18,43,17.40
2011,07,21,18,45,17.30
2011,07,21,18,46,17.30
2011,07,21,18,47,17.30
2011,07,21,18,48,17.30
2011,07,21,18,50,17.30
2011,07,21,18,51,17.20
2011,07,21,18,52,17.20
2011,07,21,18,53,17.10
2011,07,21,18,55,17.20
2011,07,21,18,56,17.20
2011,07,21,18,57,17.30
2011,07,21,18,58,17.30
2011,07,21,18,59,17.30
2011,07,21,19,00,17.30
2011,07,21,19,01,17.40
2011,07,21,19,02,17.40
2011,07,21,19,03,17.40
2011,07,21,19,05,17.40
2011,07,21,19,06,17.40
2011,07,21,19,07,17.40
2011,07,21,19,08,17.40
2011,07,21,19,09,17.40
2011,07,21,19,11,17.40
2011,07,21,19,12,17.40
2011,07,21,19,13,17.40
2011,07,21,19,14,17.40
2011,07,21,19,15,17.40
2011,07,21,19,17,17.40
2011,07,21,19,18,17.40
2011,07,21,19,19,17.30
2011,07,21,19,20,17.30
2011,07,21,19,22,17.20
2011,07,21,19,23,17.20
2011,07,21,19,24,17.20
2011,07,21,19,25,17.10
2011,07,21,19,27,17.00
2011,07,21,19,28,16.90
2011,07,21,19,29,16.90
2011,07,21,19,31,16.90
2011,07,21,19,32,16.90
2011,07,21,19,33,16.80
2011,07,21,19,34,16.80
2011,07,21,19,36,16.80
2011,07,21,19,37,16.80
2011,07,21,19,38,16.90
2011,07,21,19,39,16.90
2011,07,21,19,41,16.90
2011,07,21,19,42,16.80
2011,07,21,19,43,16.80
2011,07,21,19,44,16.80
2011,07,21,19,45,16.80
2011,07,21,19,46,16.80
2011,07,21,19,47,16.80
2011,07,21,19,49,16.70
2011,07,21,19,50,16.70
2011,07,21,19,51,16.60
2011,07,21,19,52,16.40
2011,07,21,19,54,16.30
2011,07,21,19,55,16.30
2011,07,21,19,56,16.20
2011,07,21,19,57,16.20
2011,07,21,19,59,16.20
2011,07,21,20,00,16.20
2011,07,21,20,01,16.10
2011,07,21,20,02,16.10
2011,07,21,20,04,16.10
2011,07,21,20,05,16.10
2011,07,21,20,06,16.10
2011,07,21,20,07,16.10
2011,07,21,20,09,16.00
2011,07,21,20,10,16.00
2011,07,21,20,11,15.90
2011,07,21,20,12,15.90
2011,07,21,20,14,15.80
2011,07,21,20,15,15.80
2011,07,21,20,16,15.80
2011,07,21,20,18,15.70
2011,07,21,20,19,15.70
2011,07,21,20,20,15.70
2011,07,21,20,21,15.60
2011,07,21,20,23,15.60
2011,07,21,20,24,15.60
2011,07,21,20,25,15.60
2011,07,21,20,26,15.60
2011,07,21,20,28,15.50
2011,07,21,20,29,15.40